Location: Black Swamp Observatory
(41.3920°N, 84.1250°W)
Time: 12:52:40
(UTC-04:00)

Vanguard 2 - Pass Details

Date: 25 January 2022
Orbit: 552 x 2935 km, 32.9° (Epoch: 24 May)

Event Time Altitude Azimuth Distance (km) Brightness Sun altitude
Exits shadow 02:45:33 17° 151° (SSE) 5,148 11.6 -56.5°
Drops below altitude 10° 02:48:21 10° 145° (SE) 5,646 11.9 -56.1°
Sets 02:52:53 0° 139° (SE) 6,506 12.3 -55.4°
